{"data":{"norad_id":68161,"intl_designator":"2026-049V","name":"STARLINK-37057","alt_names":[],"object_type":"PAYLOAD","status":"ACTIVE","operator":null,"country":"US","launch_date":"2026-03-13","launch_site_code":"AFWTR","launch_vehicle":null,"mission":null,"orbit_class":"UNKNOWN","rcs_meters":null,"size_class":null,"mass_kg":null,"dimensions":null,"purposes":["comms"],"wikipedia_slug":null,"has_3d_model":false,"image_url":null,"decayed_at":null,"tle_current":{"epoch":"2026-09-20T01:50:24.319104Z","epoch_age_seconds":92157,"freshness":"FRESH","line1":"1 68161U 26049V   26263.07667036  .00009224  00000+0  28762-3 0  9991","line2":"2 68161  97.2860 283.0029 0000725  69.9552 290.1769 15.33453673 29432","mean_motion":15.33453673,"eccentricity":7.25e-5,"inclination_deg":97.286,"raan_deg":283.0029,"arg_perigee_deg":69.9552,"mean_anomaly_deg":290.1769,"bstar":0.00028762,"rev_number":2943,"period_min":93.905673536445,"perigee_km":465.02120491191,"apogee_km":466.01353479554,"semimajor_km":6843.6543698537,"source":"CELESTRAK","updated_at":"2026-09-20T09:00:43.796294Z"}}}